CAPE
0 3 2 2 3 5 365 1200 965 1230 1664 1623 1377 912 721 383 307 268 29 8 133 281
1 1 3 1 2 3 2 25 501 671 851 738 633 425 229 70 0 0 9 20 179 365
2 0 2 2 0 1 2 0 58 255 178 106 60 3 0 0 0 0 0 142 186 306
1 2 2 2 1 0 2 0 1 0 96 361 282 47 0 0 0 8 0 44 194 288
0 1 2 2 2 0 0 6 0 0 0 0 0 30 316 364 339 334 221 382 499 412
1 0 0 2 2 2 0 1 0 0 0 0 0 0 0 0 0 1 1 1 124 309
1 0 0 0 1 2 4 2 0 0 0 0 0 0 0 0 0 0 0 0 0 0
0 0 0 0 0 1 3 0 0 0 0 0 0 0 0 0 0 0 0 0 0 0
0 0 0 0 0 0 0 2 0 0 0 0 0 0 0 0 1 1 0 1 0 0
0 0 0 0 0 0 0 0 0 0 0 0 0 0 0 0 0 0 0 0 1 1
0 0 0 0 0 1 0 0 0 0 0 0 0 0 0 0 0 0 0 0 1 2
0 0 1 1 0 0 0 0 0 0 0 0 0 0 0 0 0 0 0 1 1 0
0 0 1 0 1 0 1 0 0 0 0 0 0 1 0 0 1 1 1 0 0 0
0 0 0 0 0 0 0 0 0 0 0 0 0 1 0 0 0 1 1 1 0 1
CIN
-0 -0 -0 -0 -0 -0 -68 -3 -16 -12 -4 -5 -4 -17 -36 -35 -56 -27 -139 -20 -6 -0
-0 -0 -0 -0 -0 -0 -0 -155 -49 -93 -65 -65 -45 -50 -65 -141 -0 -0 -41 -10 -3 -1
-0 -0 -0 -0 -0 -0 -0 -0 -97 -44 -97 -128 -132 -143 -0 -0 -0 -0 -0 -60 -2 -5
-0 -0 -0 -0 -0 -0 -0 -0 -0 -0 -51 -3 -8 -29 -0 -0 -0 -103 -0 -88 -7 -4
-0 -0 -0 -0 -0 -0 -0 -0 -0 -0 -0 -0 -3 -25 -2 -0 -0 -2 -5 -5 -0 -2
-0 -0 -0 -0 -0 -0 -0 -0 -0 -0 -0 -0 -0 -0 -0 -0 -0 -0 -0 -134 -68 -16
-0 -0 -0 -0 -0 -0 -0 -0 -0 -0 -0 -0 -0 -0 -0 -0 -0 -0 -0 -0 -0 -0
-1 -0 -0 -0 -0 -0 -0 -0 -0 -0 -0 -0 -0 -0 -0 -0 -0 -0 -0 -0 -0 -0
-0 -0 -0 -0 -0 -0 -0 -0 -0 -0 -0 -0 -0 -0 -0 -0 -0 -0 -0 -0 -0 -0
-0 -0 -0 -0 -0 -0 -0 -0 -0 -0 -0 -0 -0 -0 -0 -0 -0 -0 -0 -0 -0 -0
-0 -0 -0 -0 -0 -0 -0 -0 -0 -0 -1 -1 -0 -0 -0 -0 -0 -0 -0 -0 -0 -0
-0 -0 -0 -0 -0 -0 -0 -0 -0 -0 -0 -0 -0 -0 -0 -0 -0 -0 -0 -0 -1 -0
-0 -0 -0 -0 -0 -0 -0 -0 -0 -0 -0 -0 -0 -0 -0 -0 -0 -0 -0 -0 -0 -0
-1 -0 -0 -0 -0 -0 -0 -0 -0 -0 -0 -0 -0 -0 -0 -0 -0 -0 -0 -0 -0 -0
Wind_Speed
44 42 43 45 46 46 48 50 46 43 41 42 42 38 35 31 30 29 29 27 26 23
43 43 42 42 41 39 40 43 43 39 39 35 34 32 29 30 29 25 29 39 24 27
43 40 39 39 39 36 38 38 35 35 32 30 29 27 26 26 31 31 26 22 26 25
42 38 37 35 34 32 34 34 31 25 25 25 26 25 26 27 25 19 23 22 24 19
39 35 32 34 33 29 31 34 28 19 20 20 20 20 20 23 26 23 25 25 18 26
36 34 33 32 32 29 30 30 28 22 20 21 24 22 21 19 20 22 23 26 26 29
35 33 30 32 29 28 26 28 25 19 21 22 18 21 23 23 26 29 30 29 28 28
34 33 30 30 28 28 26 23 24 18 20 22 18 22 25 26 27 29 29 30 31 31
31 31 28 28 27 26 26 24 22 20 23 22 20 24 24 26 28 28 29 30 30 32
30 26 27 25 25 25 25 24 24 25 24 24 24 24 25 28 28 29 29 29 30 32
31 29 28 28 29 28 25 24 23 22 23 23 23 24 27 29 28 29 28 30 30 31
32 31 30 29 29 28 28 26 25 25 25 24 24 26 27 29 29 31 31 31 32 33
25 29 30 31 30 29 28 27 27 27 27 26 28 28 29 30 31 33 35 35 34 33
34 31 28 28 28 29 29 28 28 27 28 28 29 30 31 33 33 35 36 36 36 36
Wind_Direction
305 300 296 291 286 279 276 270 268 268 269 270 270 269 268 270 270 269 263 283 277 267
311 302 297 296 291 288 283 278 268 269 269 272 272 267 264 262 266 270 278 274 276 274
314 309 300 297 295 294 287 283 278 268 267 266 267 266 269 264 273 270 269 268 273 269
317 308 304 299 298 295 288 287 281 276 274 267 267 267 267 275 276 274 276 274 276 268
319 302 304 297 297 294 291 286 285 278 280 278 278 285 283 283 280 282 276 276 271 279
315 310 306 307 300 291 290 285 282 285 284 283 282 288 294 299 294 289 289 284 288 285
318 308 307 309 306 299 295 293 290 291 286 289 288 292 296 297 294 286 282 284 286 286
319 320 312 310 308 313 303 304 289 297 290 289 300 300 300 296 295 287 286 284 285 286
318 320 318 315 313 312 299 293 305 295 290 294 301 303 305 299 292 288 287 288 290 288
320 310 318 312 315 318 310 309 301 294 292 292 297 302 303 300 291 288 289 292 293 292
323 319 317 321 322 327 317 316 313 301 296 290 292 310 307 302 292 290 294 293 295 296
324 325 322 320 318 318 317 318 308 306 297 295 300 308 308 304 298 294 293 294 295 294
310 317 321 327 326 323 330 321 316 309 306 305 307 311 312 309 302 292 291 291 293 296
325 318 315 313 317 322 323 323 321 316 322 323 318 304 311 305 300 295 293 292 293 294